Torna al catalogo

STARLINK-34376

AttivoComunicazioniVLEO
NORAD 64300·PAYLOAD·🇺🇸 United States

Lanciato Jun 8, 2025 da Vandenberg Space Force Base

Loading…

Prossimi Passaggi (prossime 24 ore)

TLE

AggiornatoSource: CelesTrak SupGP

Epoca: Sep 14, 2026, 20:54 UTC

1 64300C 25123K   26257.87131944  .00004309  00000+0  14995-3 0  2578
2 64300  70.0002  75.7935 0003185 272.2646 248.2028 15.29566623    18

Traccia STARLINK-34376 in tempo reale con AllMySat

Download on the App Store